sat.trackr.live / text

‹ back to catalog

STARLINK-3395

NORAD 51130 · 2022-005AC

PAYLOAD ACTIVE UNKNOWN

§ Identity

Operator
Country
US
Launch date
2022-01-19
Launch site
AFETR
Launch vehicle
Mass (kg)
RCS (m²)

Purposes: comms

External: N2YO · Heavens-Above · Gunter

§ Orbital elements

Epoch: 2026-09-20T01:15:59.937984Z

Period
93.85 min
Inclination
53.1611°
Eccentricity
0.0001278
Mean motion
15.34386977 rev/d
Perigee alt
461.9 km
Apogee alt
463.6 km
Semi-major
6,840.9 km
B*
8.3394e-6
RAAN
139.8909°
Arg perigee
81.6318°
Mean anomaly
278.4829°
Rev number
25,815

§ Raw data

STARLINK-33951 51130U 22005AC  26263.05277706 -.00000095  00000+0  83394-5 0  99982 51130  53.1611 139.8909 0001278  81.6318 278.4829 15.34386977258157

JSON: /api/v1/satellites/51130 · /tle

For live sub-satellite position, see the globe view (requires WebGL).

§ Visibility from observer

Set your observer location to see the next 7 days of passes ≥ 10°. The values pass through the URL so the page stays shareable.

No JS? Fill the form by hand. The geolocation button needs JavaScript.